Address 0x5cedaf8a225f4b3d34cc5efdda58360bcd288abb 2

Overview

Balance:
21.177637283872645055 BNB

Token:
My Name Tag:
Not Available

Txn Hash
Block
From
To
Value [Txn Fee]
0x2699368c1c5cfe7b23f99361e602bb6ab09a73af76b2157aca6f69ccee5213a4109817242021-07-28 10:01:164 mins ago0x5cedaf8a225f4b3d34cc5efdda58360bcd288abbOUT 0x978764adbe045dead78ad209ad12bb2c77425c630 BNB0.0004949
0xb9d4dcf1ae9cee1ad9fc9aa6e0d25a41b586febd6034bb219e0c38d5c9d1ed21109817222021-07-28 10:01:104 mins ago0x5cedaf8a225f4b3d34cc5efdda58360bcd288abbOUT 0x49cc10b1c754fc55a4a81fdc24238981c52517ec0 BNB0.00093291
0x455e3eee931f6692eec19ebc709f21644386e82e0297037e96907cc1df01382f109817202021-07-28 10:01:044 mins ago0x5cedaf8a225f4b3d34cc5efdda58360bcd288abbOUT 0x89cd3c1405d903fda3cb6e9b670af4337222535c0 BNB0.00093291
0xd50ceea0f8af2a7ce8e05ff24a68b7c99177991f43ead82f2692934474676ddd109817162021-07-28 10:00:525 mins ago0x5cedaf8a225f4b3d34cc5efdda58360bcd288abbOUT 0x978764adbe045dead78ad209ad12bb2c77425c630 BNB0.0004949
0x3bca2c2dfbb3b7c3252afdd703c2f9342cd3a08ea3786109321631456a017312109814262021-07-28 9:46:0919 mins ago0x5cedaf8a225f4b3d34cc5efdda58360bcd288abbOUT 0x978764adbe045dead78ad209ad12bb2c77425c630 BNB0.0004949
0x851641df594501a5ebe3af381daea4f4234ff3588c805600789d42331e507979109814242021-07-28 9:46:0319 mins ago0x5cedaf8a225f4b3d34cc5efdda58360bcd288abbOUT 0x49cc10b1c754fc55a4a81fdc24238981c52517ec0 BNB0.00093291
0x6782bb2f2d4e9b8fca05ff2388483f89144990a0c6a427950bfa8dc8f88d92d7109814222021-07-28 9:45:5720 mins ago0x5cedaf8a225f4b3d34cc5efdda58360bcd288abbOUT 0x89cd3c1405d903fda3cb6e9b670af4337222535c0 BNB0.00093291
0x8bc303b2e470136b974108c1686eddddf15dbffcf484bd450a30eed0b72e13f4109814182021-07-28 9:45:4420 mins ago0x5cedaf8a225f4b3d34cc5efdda58360bcd288abbOUT 0x978764adbe045dead78ad209ad12bb2c77425c630 BNB0.0004949
0x6ddc38575522af5a091c191d32d9ec1daaed54ae2ec8cc46ad278f3b6e2aa8e0109811362021-07-28 9:31:0434 mins ago0x5cedaf8a225f4b3d34cc5efdda58360bcd288abbOUT 0x978764adbe045dead78ad209ad12bb2c77425c630 BNB0.0004949
0x5f39f6b165c0a26deeec9ceba18492ba77dc6b312925b18df30cde4a0eaa716f109811322021-07-28 9:30:5235 mins ago0x5cedaf8a225f4b3d34cc5efdda58360bcd288abbOUT 0x89cd3c1405d903fda3cb6e9b670af4337222535c0 BNB0.00093291
0x83400aecd0f810ff9434531f04154fa0ec3a05d9ce68654d9d81899c5c9e1a2b109811322021-07-28 9:30:5235 mins ago0x5cedaf8a225f4b3d34cc5efdda58360bcd288abbOUT 0x49cc10b1c754fc55a4a81fdc24238981c52517ec0 BNB0.00093291
0x4ef931aa791e3068252f0cbef6d5eb91e174e6e47b88385f32fc8c136d210aeb109811282021-07-28 9:30:4035 mins ago0x5cedaf8a225f4b3d34cc5efdda58360bcd288abbOUT 0x978764adbe045dead78ad209ad12bb2c77425c630 BNB0.0004949
0xf2df5459a87d14a34179c5747300956e625511c8d75dfd967714e2f399e41ab3109808332021-07-28 9:15:5550 mins ago0x5cedaf8a225f4b3d34cc5efdda58360bcd288abbOUT 0x978764adbe045dead78ad209ad12bb2c77425c630 BNB0.0004949
0x508a1cb27c6d1672507f393990760b6bb482d9327cb2af3fab4cc622dbcb37c1109808292021-07-28 9:15:4350 mins ago0x5cedaf8a225f4b3d34cc5efdda58360bcd288abbOUT 0x89cd3c1405d903fda3cb6e9b670af4337222535c0 BNB0.00093291
0xeca84b5e016fe380c5ac0f156be1fc99e05e98585764646aac93266d161864dc109808292021-07-28 9:15:4350 mins ago0x5cedaf8a225f4b3d34cc5efdda58360bcd288abbOUT 0x49cc10b1c754fc55a4a81fdc24238981c52517ec0 BNB0.00093291
0xe5097e900208dd93034b682528cfe1c98fe6600ef0e1bcf913d4fc140b3a297d109808252021-07-28 9:15:3150 mins ago0x5cedaf8a225f4b3d34cc5efdda58360bcd288abbOUT 0x978764adbe045dead78ad209ad12bb2c77425c630 BNB0.0004949
0x4867106ef25bb8f0296d241cec46536a4d49d3f6865656bf81e7c5278cd19c22109807852021-07-28 9:13:3152 mins ago0x5cedaf8a225f4b3d34cc5efdda58360bcd288abbOUT 0x3f2042f07d3ef7605d8b4568ca52a5235ca5d3fb0 BNB0.00076593
0x1b3107ea148f061641792568de3f14b24099426635efffd5aa4c26bca36cc147109807812021-07-28 9:13:1952 mins ago0x5cedaf8a225f4b3d34cc5efdda58360bcd288abbOUT 0x3f2042f07d3ef7605d8b4568ca52a5235ca5d3fb0 BNB0.0003678
0x696fa41cb31d15dd9dc4441b1498d7ff6ccb15d8648d9ab966ebec29b72ac473109805322021-07-28 9:00:491 hr 5 mins ago0x5cedaf8a225f4b3d34cc5efdda58360bcd288abbOUT 0x978764adbe045dead78ad209ad12bb2c77425c630 BNB0.0004949
0x2aad59df7148e08fd712ecf50eb8289fe48130acfbfebb2206bbfe8f781ed31b109805282021-07-28 9:00:371 hr 5 mins ago0x5cedaf8a225f4b3d34cc5efdda58360bcd288abbOUT 0x89cd3c1405d903fda3cb6e9b670af4337222535c0 BNB0.00093291
0x7c05be6fc842cebe5a5770e0263a2c0c30c4d3c14c34430d14face03338bbd55109805282021-07-28 9:00:371 hr 5 mins ago0x5cedaf8a225f4b3d34cc5efdda58360bcd288abbOUT 0x49cc10b1c754fc55a4a81fdc24238981c52517ec0 BNB0.00093291
0xed024f1d485c8af2afa808f4e4c39a04e1949395ed004962480ca725788561ae109805242021-07-28 9:00:251 hr 5 mins ago0x5cedaf8a225f4b3d34cc5efdda58360bcd288abbOUT 0x978764adbe045dead78ad209ad12bb2c77425c630 BNB0.0004949
0xcba7417cf0006ba2bfc94350765f90e1e07a1453d5e53b88f100bcaf1297742c109802302021-07-28 8:45:431 hr 20 mins ago0x5cedaf8a225f4b3d34cc5efdda58360bcd288abbOUT 0x978764adbe045dead78ad209ad12bb2c77425c630 BNB0.0004949
0xa4c2a69e5ed370290d7023330c560400b5293bd60a689974e80a63e82076cfbe109802262021-07-28 8:45:311 hr 20 mins ago0x5cedaf8a225f4b3d34cc5efdda58360bcd288abbOUT 0x49cc10b1c754fc55a4a81fdc24238981c52517ec0 BNB0.00093291
0x0dd41ddc5984671bad5f46903ff8b2c4ebf339137ba9c37b5b39ba2ce8fdfd3b109802262021-07-28 8:45:311 hr 20 mins ago0x5cedaf8a225f4b3d34cc5efdda58360bcd288abbOUT 0x89cd3c1405d903fda3cb6e9b670af4337222535c0 BNB0.00093291
[ Download CSV Export 
Latest 6 internal transactions
Parent Txn Hash Block From To Value
0xbfaf9a820c6e84abfc827e871b29836e7cef6841bf2d55cd05c8edbd81c445a4101214482021-06-28 6:28:1930 days 3 hrs ago 0x5cedaf8a225f4b3d34cc5efdda58360bcd288abb 0x97d6ea81348f38c9b2405e67921adfb160d2cda30 BNB
0x12acfe69bbda1aef357bb9b831c6f3d26d77fe7870dbeb04fea8efc69b55994a100753872021-06-26 16:05:0131 days 18 hrs ago 0x298f4ca44cfa5a932d0dd59ad1c30eb45ad795740x5cedaf8a225f4b3d34cc5efdda58360bcd288abb0.099495502047860357 BNB
0x51edd51368c8c798dcd2305d1a67f35d6b91b05976552d4674e7581fd19faf5b98117932021-06-17 12:25:1940 days 21 hrs ago 0x5cedaf8a225f4b3d34cc5efdda58360bcd288abb 0xa0ff429b6aad7d40aa9196189b7472ff650979290 BNB
0x219f9cbc6558c8bb2b6ad8118c58d39127cc2e94af1d198bb3a178e70facd1cd98099012021-06-17 10:50:4340 days 23 hrs ago 0x5cedaf8a225f4b3d34cc5efdda58360bcd288abb 0x37bd34ec05f39cd2d46ef61d1cb36115cfb273fc0 BNB
0x079cfa01018593ff0f6f4999d18e52dc8482c9c737b10d9438a940d3b6b2c82d98083462021-06-17 9:32:5841 days 33 mins ago 0x5cedaf8a225f4b3d34cc5efdda58360bcd288abb 0xdd08297a91f7b61d030cc35ba05f8c9a185826c80 BNB
0xf215b2dc5f5d16ede64a84d5eeb519a814bc1352d268dc2b7cd666805ad8a73579164412021-04-12 14:58:15106 days 19 hrs ago 0xf1b5bbbcf0684a9a36d6db377837d786707bf99d0x5cedaf8a225f4b3d34cc5efdda58360bcd288abb0.000172932590876076 BNB
[ Download CSV Export 
Loading

Contract Name:
0 BNB

Compiler Version
0

Optimization Enabled:
0 BNB

Other Settings:
-NA-
Block Transaction Gas Used Reward
Age Block Fee Address BC Fee Address Voting Power Jailed Incoming
Block Uncle Number Difficulty Gas Used Reward
Loading